Location: Eboldshausen
(51.7766°N, 10.0050°E)
Time: 14:14:21
(UTC+00:00)

ARIANE 6 FM1 Upper Stage - Visible Passes

Search period start: 14 February 2026 00:00
Search period end: 24 February 2026 00:00
Orbit: 522 x 609 km, 62.0° (Epoch: 13 February)

Date Brightness Start Highest point End Pass type
(mag) Time Alt. Az. Time Alt. Az. Time Alt. Az.
14 Feb 3.1 17:39:10 10° NW 17:42:55 39° NNE 17:45:29 18° E visible
14 Feb 3.7 19:18:13 10° WNW 19:21:31 40° WSW 19:21:31 40° WSW visible
15 Feb 2.8 17:39:07 10° NW 17:42:59 50° NE 17:46:00 16° ESE visible
15 Feb 4.1 19:18:21 10° WNW 19:21:51 30° SW 19:22:03 30° SW visible
16 Feb 2.5 17:39:04 10° NW 17:43:00 65° NE 17:46:40 12° ESE visible
16 Feb 4.6 19:18:35 10° WNW 19:21:41 22° WSW 19:22:42 20° SW visible
17 Feb 2.5 17:39:01 10° NW 17:43:00 85° NE 17:46:58 10° SE visible
17 Feb 5.2 19:19:00 10° W 19:21:29 16° WSW 19:23:33 12° SSW visible
18 Feb 2.8 17:39:00 10° NW 17:42:57 71° SW 17:46:54 10° SE visible
18 Feb 5.5 19:19:55 10° W 19:21:15 11° WSW 19:22:35 10° SW visible
19 Feb 3.4 17:39:00 10° NW 17:42:52 51° SW 17:46:43 10° SSE visible
20 Feb 4.1 17:39:04 10° WNW 17:42:44 37° SW 17:46:24 10° SSE visible
21 Feb 4.8 17:39:12 10° WNW 17:42:34 27° SW 17:45:56 10° S visible
22 Feb 5.4 17:39:27 10° WNW 17:42:21 20° WSW 17:45:16 10° SSW visible
23 Feb 5.7 17:39:57 10° W 17:42:07 14° WSW 17:44:16 10° SSW visible
